Previsão horária em Bolshie Ermaki

Hoje, 6 Março, Sábado

Tempo Temperatura Precipitação Vento Pressão Humidade
00:00 -9°C° 0 mm 2 m/s 741 mmHg 89%
01:00 -10°C° 0 mm 2 m/s 742 mmHg 89%
02:00 -12°C° 0 mm 2 m/s 742 mmHg 89%
03:00 -12°C° 0 mm 2 m/s 742 mmHg 90%
04:00 -13°C° 0 mm 2 m/s 742 mmHg 91%
05:00 -13°C° 0 mm 2 m/s 742 mmHg 92%
06:00 -12°C° 0 mm 2 m/s 742 mmHg 90%
07:00 -12°C° 0 mm 2 m/s 742 mmHg 89%
08:00 -10°C° 0 mm 2 m/s 743 mmHg 87%
09:00 -8°C° 0 mm 2 m/s 743 mmHg 82%
10:00 -8°C° 0 mm 3 m/s 743 mmHg 77%
11:00 -7°C° 0 mm 3 m/s 743 mmHg 73%
12:00 -6°C° 0.1 mm 3 m/s 743 mmHg 71%
13:00 -7°C° 0.1 mm 4 m/s 742 mmHg 70%
14:00 -7°C° 0.1 mm 4 m/s 742 mmHg 68%
15:00 -6°C° 0.1 mm 3 m/s 742 mmHg 72%
16:00 -7°C° 0.1 mm 3 m/s 742 mmHg 76%
17:00 -7°C° 0.1 mm 2 m/s 742 mmHg 80%
18:00 -8°C° 0 mm 2 m/s 741 mmHg 82%
19:00 -9°C° 0 mm 3 m/s 741 mmHg 85%
20:00 -10°C° 0 mm 3 m/s 741 mmHg 87%
21:00 -10°C° 0 mm 3 m/s 740 mmHg 85%
22:00 -11°C° 0 mm 4 m/s 739 mmHg 83%
23:00 -10°C° 0 mm 4 m/s 739 mmHg 80%

Amanhã, 7 Março, Domingo

Tempo Temperatura Precipitação Vento Pressão Humidade
00:00 -11°C° 0 mm 5 m/s 738 mmHg 82%
01:00 -10°C° 0 mm 6 m/s 737 mmHg 84%
02:00 -10°C° 0 mm 6 m/s 736 mmHg 86%
03:00 -9°C° 0.2 mm 7 m/s 735 mmHg 87%
04:00 -9°C° 0.2 mm 7 m/s 733 mmHg 88%
05:00 -10°C° 0.2 mm 8 m/s 732 mmHg 88%
06:00 -8°C° 0.5 mm 8 m/s 731 mmHg 89%
07:00 -8°C° 0.5 mm 8 m/s 730 mmHg 90%
08:00 -7°C° 0.5 mm 8 m/s 728 mmHg 91%
09:00 -7°C° 0.7 mm 8 m/s 728 mmHg 90%
10:00 -7°C° 0.7 mm 8 m/s 728 mmHg 90%
11:00 -6°C° 0.7 mm 8 m/s 728 mmHg 89%
12:00 -7°C° 0.1 mm 7 m/s 728 mmHg 78%
13:00 -6°C° 0.1 mm 6 m/s 728 mmHg 67%
14:00 -6°C° 0.1 mm 6 m/s 729 mmHg 55%
15:00 -7°C° 0 mm 5 m/s 729 mmHg 59%
16:00 -7°C° 0 mm 5 m/s 729 mmHg 63%
17:00 -8°C° 0 mm 4 m/s 729 mmHg 66%
18:00 -8°C° 0 mm 5 m/s 728 mmHg 69%
19:00 -8°C° 0 mm 5 m/s 728 mmHg 71%
20:00 -10°C° 0 mm 5 m/s 727 mmHg 73%
21:00 -10°C° 0.1 mm 5 m/s 727 mmHg 78%
22:00 -8°C° 0.1 mm 5 m/s 726 mmHg 83%
23:00 -9°C° 0.1 mm 6 m/s 726 mmHg 87%

Depois de amanhã, 8 Março, Segunda-feira

Tempo Temperatura Precipitação Vento Pressão Humidade
00:00 -10°C° 0.2 mm 6 m/s 726 mmHg 88%
01:00 -10°C° 0.2 mm 6 m/s 726 mmHg 88%
02:00 -11°C° 0.2 mm 6 m/s 726 mmHg 88%
03:00 -11°C° 0.2 mm 5 m/s 727 mmHg 89%
04:00 -12°C° 0.2 mm 5 m/s 727 mmHg 90%
05:00 -12°C° 0.2 mm 5 m/s 728 mmHg 91%
06:00 -14°C° 0.1 mm 6 m/s 729 mmHg 89%
07:00 -14°C° 0.1 mm 6 m/s 730 mmHg 87%
08:00 -14°C° 0.1 mm 6 m/s 730 mmHg 85%
09:00 -12°C° 0 mm 6 m/s 731 mmHg 82%
10:00 -12°C° 0 mm 6 m/s 732 mmHg 80%
11:00 -11°C° 0 mm 6 m/s 732 mmHg 77%
12:00 -11°C° 0 mm 6 m/s 733 mmHg 77%
13:00 -10°C° 0 mm 6 m/s 733 mmHg 78%
14:00 -10°C° 0 mm 6 m/s 734 mmHg 78%
15:00 -10°C° 0 mm 5 m/s 734 mmHg 80%
16:00 -10°C° 0 mm 4 m/s 735 mmHg 82%
17:00 -10°C° 0 mm 4 m/s 735 mmHg 84%
18:00 -10°C° 0 mm 3 m/s 735 mmHg 86%
19:00 -12°C° 0 mm 3 m/s 736 mmHg 89%
20:00 -13°C° 0 mm 3 m/s 737 mmHg 91%
21:00 -13°C° 0 mm 3 m/s 737 mmHg 92%
22:00 -14°C° 0 mm 3 m/s 738 mmHg 92%
23:00 -15°C° 0 mm 3 m/s 738 mmHg 93%

9 Março, Terça-feira

Tempo Temperatura Precipitação Vento Pressão Humidade
00:00 -15°C° 0 mm 3 m/s 738 mmHg 93%
01:00 -16°C° 0 mm 3 m/s 739 mmHg 93%
02:00 -16°C° 0 mm 3 m/s 739 mmHg 94%
03:00 -17°C° 0 mm 3 m/s 740 mmHg 94%
04:00 -18°C° 0 mm 3 m/s 740 mmHg 94%
05:00 -18°C° 0 mm 3 m/s 740 mmHg 95%
06:00 -18°C° 0 mm 3 m/s 741 mmHg 93%
07:00 -18°C° 0 mm 3 m/s 741 mmHg 91%
08:00 -19°C° 0 mm 3 m/s 742 mmHg 90%
09:00 -17°C° 0 mm 3 m/s 742 mmHg 86%
10:00 -16°C° 0 mm 3 m/s 742 mmHg 82%
11:00 -13°C° 0 mm 2 m/s 742 mmHg 78%
12:00 -12°C° 0 mm 2 m/s 743 mmHg 76%
13:00 -12°C° 0 mm 3 m/s 743 mmHg 74%
14:00 -10°C° 0 mm 3 m/s 743 mmHg 72%
15:00 -10°C° 0 mm 2 m/s 743 mmHg 77%
16:00 -10°C° 0 mm 2 m/s 742 mmHg 82%
17:00 -10°C° 0 mm 2 m/s 742 mmHg 87%
18:00 -10°C° 0.1 mm 2 m/s 742 mmHg 89%
19:00 -12°C° 0.1 mm 3 m/s 742 mmHg 90%
20:00 -12°C° 0.1 mm 3 m/s 742 mmHg 92%
21:00 -10°C° 0.1 mm 3 m/s 742 mmHg 90%
22:00 -11°C° 0.1 mm 4 m/s 742 mmHg 88%
23:00 -10°C° 0.1 mm 4 m/s 741 mmHg 86%

10 Março, Quarta-feira

Tempo Temperatura Precipitação Vento Pressão Humidade
00:00 -10°C° 0.2 mm 4 m/s 741 mmHg 87%
01:00 -10°C° 0.2 mm 4 m/s 741 mmHg 89%
02:00 -10°C° 0.2 mm 4 m/s 741 mmHg 90%
03:00 -10°C° 0.3 mm 4 m/s 741 mmHg 91%
04:00 -11°C° 0.3 mm 4 m/s 741 mmHg 92%
05:00 -11°C° 0.3 mm 4 m/s 741 mmHg 93%
06:00 -13°C° 0.2 mm 3 m/s 742 mmHg 93%
07:00 -14°C° 0.2 mm 3 m/s 742 mmHg 92%
08:00 -16°C° 0.2 mm 3 m/s 743 mmHg 92%
09:00 -15°C° 0.1 mm 3 m/s 743 mmHg 90%
10:00 -15°C° 0.1 mm 3 m/s 744 mmHg 89%
11:00 -15°C° 0.1 mm 3 m/s 744 mmHg 87%
12:00 -14°C° 0 mm 3 m/s 744 mmHg 85%
13:00 -14°C° 0 mm 3 m/s 744 mmHg 82%
14:00 -14°C° 0 mm 3 m/s 744 mmHg 80%
15:00 -15°C° 0 mm 3 m/s 745 mmHg 82%
16:00 -15°C° 0 mm 2 m/s 745 mmHg 84%
17:00 -16°C° 0 mm 2 m/s 745 mmHg 86%
18:00 -17°C° 0 mm 2 m/s 745 mmHg 89%
19:00 -18°C° 0 mm 2 m/s 746 mmHg 91%
20:00 -20°C° 0 mm 2 m/s 746 mmHg 93%
21:00 -20°C° 0 mm 2 m/s 747 mmHg 94%
22:00 -21°C° 0 mm 2 m/s 747 mmHg 95%
23:00 -21°C° 0 mm 2 m/s 747 mmHg 95%

11 Março, Quinta-feira

Tempo Temperatura Precipitação Vento Pressão Humidade
00:00 -23°C° 0 mm 2 m/s 747 mmHg 96%
01:00 -24°C° 0 mm 2 m/s 747 mmHg 96%
02:00 -24°C° 0 mm 2 m/s 747 mmHg 97%
03:00 -24°C° 0 mm 2 m/s 747 mmHg 97%
04:00 -25°C° 0 mm 2 m/s 747 mmHg 97%
05:00 -25°C° 0 mm 2 m/s 748 mmHg 98%
06:00 -24°C° 0 mm 2 m/s 748 mmHg 96%
07:00 -24°C° 0 mm 2 m/s 748 mmHg 94%
08:00 -23°C° 0 mm 2 m/s 748 mmHg 92%
09:00 -22°C° 0 mm 3 m/s 748 mmHg 87%
10:00 -19°C° 0 mm 3 m/s 748 mmHg 83%
11:00 -17°C° 0 mm 3 m/s 747 mmHg 79%
12:00 -16°C° 0 mm 3 m/s 747 mmHg 78%
13:00 -16°C° 0 mm 4 m/s 747 mmHg 76%
14:00 -16°C° 0 mm 4 m/s 746 mmHg 75%
15:00 -16°C° 0 mm 4 m/s 746 mmHg 78%
16:00 -17°C° 0 mm 4 m/s 745 mmHg 82%
17:00 -17°C° 0 mm 4 m/s 745 mmHg 85%
18:00 -17°C° 0 mm 4 m/s 744 mmHg 87%
19:00 -19°C° 0 mm 5 m/s 744 mmHg 88%
20:00 -19°C° 0 mm 5 m/s 743 mmHg 89%
21:00 -18°C° 0 mm 5 m/s 742 mmHg 90%
22:00 -18°C° 0 mm 5 m/s 741 mmHg 91%
23:00 -17°C° 0 mm 6 m/s 740 mmHg 91%
Mostrar mais